Hauptseite
METAR-TAF:

METAR-TAF

Flughäfen :

Militärflugplatz Payerne

Payerne, Schweiz

Breite: 46-49N, Länge: 006-57E, Höhe: 490 m

Beobachtung

Neuester Wetterbericht von vor 11 Stunden und 59 Minuten, um 16:50 UTC
Wind 4 kt aus Ost, variierte zwischen Ost/Nordost und Südost
Temperatur 10°C
Luftfeuchtigkeit 87%
Luftdruck 1028 hPa
Sichtweite 10 km oder mehr
Geschlossene Wolkendecke in der Höhe von 1600 ft

METAR: LSMP 141650Z 10004KT 070V130 9999 OVC016 10/08 Q1028 RMK WHT

Zeit: 05:49 (04:49 UTC)


TAF: fehlend

Wetterbeobachtungen und Prognosen von mehr als 4000 Flughäfen (METAR und TAF Bericht).

Die verfügbaren Stationen werden durch gelbe und rote Markierungen auf der Karte dargestellt.

Führen Sie die Maus auf sie, um den Namen der Station zu sehen.

Darauf klicken, um die Beobachtung von Wetterbeobachtungen und Prognosen zu sehen.

Um die Karte zu ändern : klicken Sie auf den grünen Tasten mit einem schwarzen Kreuz Zum Vergrößern, auf den grünen Button mit einem Gedankenstrich zu verkleinern, oder auf die grünen Pfeile für benachbarte Karten.


METAR-TAF: